{"data":{"norad_id":60043,"intl_designator":"2024-112F","name":"STARLINK-11086 [DTC]","alt_names":[],"object_type":"PAYLOAD","status":"ACTIVE","operator":null,"country":"US","launch_date":"2024-06-08","launch_site_code":"AFWTR","launch_vehicle":null,"mission":null,"orbit_class":"UNKNOWN","rcs_meters":null,"size_class":null,"mass_kg":null,"dimensions":null,"purposes":["comms"],"wikipedia_slug":null,"has_3d_model":false,"image_url":null,"decayed_at":null,"tle_current":{"epoch":"2026-09-21T13:22:33.485664Z","epoch_age_seconds":86292,"freshness":"FRESH","line1":"1 60043U 24112F   26264.55733201 -.00002752  00000+0 -17882-4 0  9996","line2":"2 60043  53.1593  20.7586 0000992  38.8978 321.2112 15.69694532131740","mean_motion":15.69694532,"eccentricity":9.92e-5,"inclination_deg":53.1593,"raan_deg":20.7586,"arg_perigee_deg":38.8978,"mean_anomaly_deg":321.2112,"bstar":-1.7882e-5,"rev_number":13174,"period_min":91.737594203456,"perigee_km":359.10261380341,"apogee_km":360.43941475344,"semimajor_km":6737.9080142784,"source":"CELESTRAK","updated_at":"2026-09-22T09:00:49.142805Z"}}}